contact:dominique.lefevre@mio.osupytheas.fr, maurice.libes@osupytheas.fr, didier.mallarino@osupytheas.fr
Project:EMSO http://www.emso-fr.org/EMSO-France
Depth: 2436.0 m
Title:EMSO Ligure Ouest : Data MII capteur MICROCAT
DateTime_Computer,Latitude,Longitude,Temperature,Conductivity,Pressure,DateTime_Instrument
DateTime_Computer,Latitude,Longitude,degC,S m-1,dbar,DateTime_Instrument
2022-04-21T00:01:28Z,42.805,6.029,13.3009,4.60053,2470.18,2022-4-21T02:03:07Z
2022-04-21T00:04:31Z,42.805,6.029,13.3011,4.60055,2470.203,2022-4-21T02:06:10Z
2022-04-21T00:07:34Z,42.805,6.029,13.3021,4.60071,2470.194,2022-4-21T02:09:13Z
2022-04-21T00:10:37Z,42.805,6.029,13.3010,4.60069,2470.194,2022-4-21T02:12:16Z
2022-04-21T00:13:40Z,42.805,6.029,13.3009,4.60055,2470.227,2022-4-21T02:15:19Z
2022-04-21T00:16:44Z,42.805,6.029,13.3006,4.60057,2470.217,2022-4-21T02:18:22Z
2022-04-21T00:19:47Z,42.805,6.029,13.3005,4.60062,2470.203,2022-4-21T02:21:26Z
2022-04-21T00:22:50Z,42.805,6.029,13.2999,4.60064,2470.203,2022-4-21T02:24:29Z
2022-04-21T00:25:53Z,42.805,6.029,13.3004,4.60070,2470.203,2022-4-21T02:27:32Z
2022-04-21T00:28:56Z,42.805,6.029,13.3006,4.60064,2470.203,2022-4-21T02:30:35Z
2022-04-21T00:31:59Z,42.805,6.029,13.3015,4.60079,2470.217,2022-4-21T02:33:38Z
2022-04-21T00:35:02Z,42.805,6.029,13.3009,4.60073,2470.203,2022-4-21T02:36:41Z
2022-04-21T00:38:05Z,42.805,6.029,13.3014,4.60071,2470.194,2022-4-21T02:39:44Z
2022-04-21T00:41:09Z,42.805,6.029,13.3010,4.60059,2470.18,2022-4-21T02:42:47Z
2022-04-21T00:44:12Z,42.805,6.029,13.3012,4.60060,2470.171,2022-4-21T02:45:51Z
2022-04-21T00:47:15Z,42.805,6.029,13.3001,4.60063,2470.203,2022-4-21T02:48:54Z
2022-04-21T00:50:18Z,42.805,6.029,13.3011,4.60059,2470.18,2022-4-21T02:51:57Z
2022-04-21T00:53:21Z,42.805,6.029,13.3011,4.60069,2470.18,2022-4-21T02:55:00Z
2022-04-21T00:56:24Z,42.805,6.029,13.3004,4.60064,2470.203,2022-4-21T02:58:03Z
2022-04-21T00:59:27Z,42.805,6.029,13.3009,4.60069,2470.18,2022-4-21T03:01:06Z
2022-04-21T01:02:30Z,42.805,6.029,13.3011,4.60061,2470.194,2022-4-21T03:04:09Z
2022-04-21T01:05:33Z,42.805,6.029,13.3006,4.60059,2470.171,2022-4-21T03:07:12Z
2022-04-21T01:08:37Z,42.805,6.029,13.3015,4.60082,2470.203,2022-4-21T03:10:15Z
2022-04-21T01:11:40Z,42.805,6.029,13.3014,4.60084,2470.18,2022-4-21T03:13:19Z
2022-04-21T01:14:43Z,42.805,6.029,13.3011,4.60067,2470.171,2022-4-21T03:16:22Z
2022-04-21T01:17:46Z,42.805,6.029,13.3011,4.60076,2470.156,2022-4-21T03:19:25Z
2022-04-21T01:20:49Z,42.805,6.029,13.3012,4.60074,2470.171,2022-4-21T03:22:28Z
2022-04-21T01:23:52Z,42.805,6.029,13.3011,4.60059,2470.171,2022-4-21T03:25:31Z
2022-04-21T01:26:55Z,42.805,6.029,13.3009,4.60057,2470.171,2022-4-21T03:28:34Z
2022-04-21T01:29:58Z,42.805,6.029,13.3002,4.60052,2470.194,2022-4-21T03:31:37Z
2022-04-21T01:33:02Z,42.805,6.029,13.3006,4.60070,2470.171,2022-4-21T03:34:40Z
2022-04-21T01:36:05Z,42.805,6.029,13.3004,4.60084,2470.156,2022-4-21T03:37:44Z
2022-04-21T01:39:08Z,42.805,6.029,13.3005,4.60064,2470.171,2022-4-21T03:40:47Z
2022-04-21T01:42:11Z,42.805,6.029,13.3008,4.60067,2470.171,2022-4-21T03:43:50Z
2022-04-21T01:45:14Z,42.805,6.029,13.3010,4.60069,2470.156,2022-4-21T03:46:53Z
2022-04-21T01:48:17Z,42.805,6.029,13.3011,4.60062,2470.171,2022-4-21T03:49:56Z
2022-04-21T01:51:20Z,42.805,6.029,13.3013,4.60061,2470.147,2022-4-21T03:52:59Z
2022-04-21T01:54:23Z,42.805,6.029,13.3011,4.60068,2470.156,2022-4-21T03:56:02Z
2022-04-21T01:57:27Z,42.805,6.029,13.3008,4.60074,2470.156,2022-4-21T03:59:05Z
2022-04-21T02:00:30Z,42.805,6.029,13.3014,4.60088,2470.133,2022-4-21T04:02:09Z
2022-04-21T02:03:33Z,42.805,6.029,13.3011,4.60069,2470.171,2022-4-21T04:05:12Z
2022-04-21T02:06:36Z,42.805,6.029,13.3017,4.60087,2470.156,2022-4-21T04:08:15Z
2022-04-21T02:09:39Z,42.805,6.029,13.3009,4.60064,2470.133,2022-4-21T04:11:18Z
2022-04-21T02:12:42Z,42.805,6.029,13.3011,4.60059,2470.156,2022-4-21T04:14:21Z
2022-04-21T02:15:45Z,42.805,6.029,13.3015,4.60067,2470.171,2022-4-21T04:17:24Z
2022-04-21T02:18:48Z,42.805,6.029,13.3008,4.60079,2470.18,2022-4-21T04:20:27Z
2022-04-21T02:21:51Z,42.805,6.029,13.3009,4.60060,2470.171,2022-4-21T04:23:30Z
2022-04-21T02:24:55Z,42.805,6.029,13.3011,4.60075,2470.156,2022-4-21T04:26:34Z
2022-04-21T02:27:58Z,42.805,6.029,13.3011,4.60076,2470.194,2022-4-21T04:29:37Z
2022-04-21T02:31:01Z,42.805,6.029,13.3004,4.60073,2470.156,2022-4-21T04:32:40Z
2022-04-21T02:34:04Z,42.805,6.029,13.3014,4.60076,2470.156,2022-4-21T04:35:43Z
2022-04-21T02:37:07Z,42.805,6.029,13.3010,4.60088,2470.147,2022-4-21T04:38:46Z
2022-04-21T02:40:10Z,42.805,6.029,13.3010,4.60080,2470.133,2022-4-21T04:41:49Z
2022-04-21T02:43:13Z,42.805,6.029,13.3009,4.60072,2470.194,2022-4-21T04:44:52Z
2022-04-21T02:46:16Z,42.805,6.029,13.3012,4.60063,2470.147,2022-4-21T04:47:55Z
2022-04-21T02:49:20Z,42.805,6.029,13.3007,4.60080,2470.156,2022-4-21T04:50:58Z
2022-04-21T02:52:23Z,42.805,6.029,13.3005,4.60075,2470.11,2022-4-21T04:54:02Z
2022-04-21T02:55:26Z,42.805,6.029,13.3009,4.60070,2470.124,2022-4-21T04:57:05Z
2022-04-21T02:58:29Z,42.805,6.029,13.3004,4.60090,2470.171,2022-4-21T05:00:08Z
2022-04-21T03:01:32Z,42.805,6.029,13.3014,4.60084,2470.087,2022-4-21T05:03:11Z
2022-04-21T03:04:35Z,42.805,6.029,13.3012,4.60069,2470.11,2022-4-21T05:06:14Z
2022-04-21T03:07:38Z,42.805,6.029,13.3004,4.60053,2470.11,2022-4-21T05:09:17Z
2022-04-21T03:10:41Z,42.805,6.029,13.3006,4.60053,2470.133,2022-4-21T05:12:20Z
2022-04-21T03:13:45Z,42.805,6.029,13.3013,4.60064,2470.124,2022-4-21T05:15:23Z
2022-04-21T03:16:48Z,42.805,6.029,13.3019,4.60077,2470.124,2022-4-21T05:18:27Z
2022-04-21T03:19:51Z,42.805,6.029,13.3012,4.60081,2470.124,2022-4-21T05:21:30Z
2022-04-21T03:22:54Z,42.805,6.029,13.3009,4.60058,2470.124,2022-4-21T05:24:33Z
2022-04-21T03:25:57Z,42.805,6.029,13.3006,4.60073,2470.124,2022-4-21T05:27:36Z
2022-04-21T03:29:00Z,42.805,6.029,13.3004,4.60079,2470.11,2022-4-21T05:30:39Z
2022-04-21T03:32:03Z,42.805,6.029,13.3013,4.60064,2470.077,2022-4-21T05:33:42Z
2022-04-21T03:35:06Z,42.805,6.029,13.3019,4.60069,2470.096,2022-4-21T05:36:45Z
2022-04-21T03:38:10Z,42.805,6.029,13.3010,4.60057,2470.063,2022-4-21T05:39:48Z
2022-04-21T03:41:13Z,42.805,6.029,13.3011,4.60059,2470.11,2022-4-21T05:42:52Z
2022-04-21T03:44:16Z,42.805,6.029,13.3010,4.60072,2470.063,2022-4-21T05:45:55Z
2022-04-21T03:47:19Z,42.805,6.029,13.3013,4.60077,2470.063,2022-4-21T05:48:58Z
2022-04-21T03:50:22Z,42.805,6.029,13.3009,4.60052,2470.1,2022-4-21T05:52:01Z
2022-04-21T03:53:25Z,42.805,6.029,13.3011,4.60072,2470.063,2022-4-21T05:55:04Z
2022-04-21T03:56:28Z,42.805,6.029,13.3013,4.60072,2470.087,2022-4-21T05:58:07Z
2022-04-21T03:59:31Z,42.805,6.029,13.3009,4.60057,2470.077,2022-4-21T06:01:10Z
2022-04-21T04:02:35Z,42.805,6.029,13.3005,4.60067,2470.087,2022-4-21T06:04:13Z
2022-04-21T04:05:38Z,42.805,6.029,13.3008,4.60067,2470.087,2022-4-21T06:07:17Z
2022-04-21T04:08:41Z,42.805,6.029,13.3007,4.60078,2470.1,2022-4-21T06:10:20Z
2022-04-21T04:11:44Z,42.805,6.029,13.3003,4.60074,2470.087,2022-4-21T06:13:23Z
2022-04-21T04:14:47Z,42.805,6.029,13.3004,4.60064,2470.1,2022-4-21T06:16:26Z
2022-04-21T04:17:50Z,42.805,6.029,13.3014,4.60062,2470.063,2022-4-21T06:19:29Z
2022-04-21T04:20:53Z,42.805,6.029,13.3009,4.60070,2470.063,2022-4-21T06:22:32Z
2022-04-21T04:23:56Z,42.805,6.029,13.3011,4.60059,2470.063,2022-4-21T06:25:35Z
2022-04-21T04:26:59Z,42.805,6.029,13.3010,4.60064,2470.1,2022-4-21T06:28:38Z
2022-04-21T04:30:03Z,42.805,6.029,13.3011,4.60068,2470.063,2022-4-21T06:31:41Z
2022-04-21T04:33:06Z,42.805,6.029,13.3014,4.60064,2470.087,2022-4-21T06:34:45Z
2022-04-21T04:36:09Z,42.805,6.029,13.3006,4.60064,2470.087,2022-4-21T06:37:48Z
2022-04-21T04:39:12Z,42.805,6.029,13.3019,4.60080,2470.063,2022-4-21T06:40:51Z
2022-04-21T04:42:15Z,42.805,6.029,13.3013,4.60059,2470.087,2022-4-21T06:43:54Z
2022-04-21T04:45:18Z,42.805,6.029,13.3005,4.60062,2470.1,2022-4-21T06:46:57Z
2022-04-21T04:48:21Z,42.805,6.029,13.3009,4.60066,2470.1,2022-4-21T06:50:00Z
2022-04-21T04:51:24Z,42.805,6.029,13.3009,4.60060,2470.087,2022-4-21T06:53:03Z
2022-04-21T04:54:28Z,42.805,6.029,13.3015,4.60067,2470.063,2022-4-21T06:56:06Z
2022-04-21T04:57:31Z,42.805,6.029,13.3012,4.60064,2470.063,2022-4-21T06:59:10Z
2022-04-21T05:00:34Z,42.805,6.029,13.3008,4.60068,2470.063,2022-4-21T07:02:13Z
2022-04-21T05:03:37Z,42.805,6.029,13.3021,4.60077,2470.04,2022-4-21T07:05:16Z
2022-04-21T05:06:40Z,42.805,6.029,13.3000,4.60057,2470.077,2022-4-21T07:08:19Z
2022-04-21T05:09:43Z,42.805,6.029,13.3009,4.60067,2470.04,2022-4-21T07:11:22Z
2022-04-21T05:12:46Z,42.805,6.029,13.3009,4.60069,2470.087,2022-4-21T07:14:25Z
2022-04-21T05:15:49Z,42.805,6.029,13.3009,4.60062,2470.087,2022-4-21T07:17:28Z
2022-04-21T05:18:53Z,42.805,6.029,13.3014,4.60069,2470.063,2022-4-21T07:20:31Z
2022-04-21T05:21:56Z,42.805,6.029,13.3004,4.60069,2470.1,2022-4-21T07:23:35Z
2022-04-21T05:24:59Z,42.805,6.029,13.3014,4.60070,2470.087,2022-4-21T07:26:38Z
2022-04-21T05:28:02Z,42.805,6.029,13.3002,4.60062,2470.077,2022-4-21T07:29:41Z
2022-04-21T05:31:05Z,42.805,6.029,13.3007,4.60054,2470.077,2022-4-21T07:32:44Z
2022-04-21T05:34:08Z,42.805,6.029,13.3014,4.60063,2470.063,2022-4-21T07:35:47Z
2022-04-21T05:37:11Z,42.805,6.029,13.3014,4.60064,2470.063,2022-4-21T07:38:50Z
2022-04-21T05:40:14Z,42.805,6.029,13.3014,4.60076,2470.063,2022-4-21T07:41:53Z
2022-04-21T05:43:17Z,42.805,6.029,13.3007,4.60065,2470.04,2022-4-21T07:44:56Z
2022-04-21T05:46:21Z,42.805,6.029,13.3009,4.60057,2470.053,2022-4-21T07:48:00Z
2022-04-21T05:49:24Z,42.805,6.029,13.3005,4.60058,2470.04,2022-4-21T07:51:03Z
2022-04-21T05:52:27Z,42.805,6.029,13.3010,4.60062,2470.063,2022-4-21T07:54:06Z
2022-04-21T05:55:30Z,42.805,6.029,13.3009,4.60051,2470.063,2022-4-21T07:57:09Z
2022-04-21T05:58:33Z,42.805,6.029,13.3000,4.60069,2470.1,2022-4-21T08:00:12Z
2022-04-21T06:01:36Z,42.805,6.029,13.3004,4.60064,2470.087,2022-4-21T08:03:15Z
2022-04-21T06:04:39Z,42.805,6.029,13.3006,4.60067,2470.1,2022-4-21T08:06:18Z
2022-04-21T06:07:42Z,42.805,6.029,13.3009,4.60050,2470.04,2022-4-21T08:09:21Z
2022-04-21T06:10:46Z,42.805,6.029,13.3006,4.60050,2470.087,2022-4-21T08:12:24Z
2022-04-21T06:13:49Z,42.805,6.029,13.3007,4.60064,2470.049,2022-4-21T08:15:28Z
2022-04-21T06:16:52Z,42.805,6.029,13.3007,4.60054,2470.04,2022-4-21T08:18:31Z
2022-04-21T06:19:55Z,42.805,6.029,13.3004,4.60059,2470.077,2022-4-21T08:21:34Z
2022-04-21T06:22:58Z,42.805,6.029,13.3006,4.60062,2470.087,2022-4-21T08:24:37Z
2022-04-21T06:26:01Z,42.805,6.029,13.3004,4.60063,2470.077,2022-4-21T08:27:40Z
2022-04-21T06:29:04Z,42.805,6.029,13.3009,4.60067,2470.063,2022-4-21T08:30:43Z
2022-04-21T06:32:07Z,42.805,6.029,13.3004,4.60056,2470.04,2022-4-21T08:33:46Z
2022-04-21T06:35:11Z,42.805,6.029,13.3011,4.60055,2470.1,2022-4-21T08:36:49Z
2022-04-21T06:38:14Z,42.805,6.029,13.3005,4.60059,2470.063,2022-4-21T08:39:53Z
2022-04-21T06:41:17Z,42.805,6.029,13.3007,4.60059,2470.077,2022-4-21T08:42:56Z
2022-04-21T06:44:20Z,42.805,6.029,13.3004,4.60061,2470.1,2022-4-21T08:45:59Z
2022-04-21T06:47:23Z,42.805,6.029,13.3003,4.60052,2470.04,2022-4-21T08:49:02Z
2022-04-21T06:50:26Z,42.805,6.029,13.3010,4.60045,2470.063,2022-4-21T08:52:05Z
2022-04-21T06:53:29Z,42.805,6.029,13.3004,4.60061,2470.04,2022-4-21T08:55:08Z
2022-04-21T06:56:32Z,42.805,6.029,13.3004,4.60055,2470.087,2022-4-21T08:58:11Z
2022-04-21T06:59:36Z,42.805,6.029,13.3010,4.60057,2470.087,2022-4-21T09:01:14Z
2022-04-21T07:02:39Z,42.805,6.029,13.3009,4.60057,2470.063,2022-4-21T09:04:18Z
2022-04-21T07:05:42Z,42.805,6.029,13.3008,4.60054,2470.063,2022-4-21T09:07:21Z
2022-04-21T07:08:45Z,42.805,6.029,13.3005,4.60054,2470.087,2022-4-21T09:10:24Z
2022-04-21T07:11:48Z,42.805,6.029,13.3007,4.60052,2470.077,2022-4-21T09:13:27Z
2022-04-21T07:14:51Z,42.805,6.029,13.3005,4.60054,2470.087,2022-4-21T09:16:30Z
2022-04-21T07:17:54Z,42.805,6.029,13.3014,4.60062,2470.077,2022-4-21T09:19:33Z
2022-04-21T07:20:57Z,42.805,6.029,13.3012,4.60064,2470.087,2022-4-21T09:22:36Z
2022-04-21T07:24:00Z,42.805,6.029,13.3003,4.60053,2470.1,2022-4-21T09:25:39Z
2022-04-21T07:27:04Z,42.805,6.029,13.3001,4.60053,2470.087,2022-4-21T09:28:42Z
2022-04-21T07:30:07Z,42.805,6.029,13.3005,4.60050,2470.1,2022-4-21T09:31:46Z
2022-04-21T07:33:10Z,42.805,6.029,13.3006,4.60054,2470.087,2022-4-21T09:34:49Z
2022-04-21T07:36:13Z,42.805,6.029,13.3009,4.60055,2470.087,2022-4-21T09:37:52Z
2022-04-21T07:39:16Z,42.805,6.029,13.3011,4.60062,2470.124,2022-4-21T09:40:55Z
2022-04-21T07:42:19Z,42.805,6.029,13.3004,4.60052,2470.087,2022-4-21T09:43:58Z
2022-04-21T07:45:22Z,42.805,6.029,13.3002,4.60052,2470.124,2022-4-21T09:47:01Z
2022-04-21T07:48:25Z,42.805,6.029,13.3005,4.60064,2470.11,2022-4-21T09:50:04Z
2022-04-21T07:51:29Z,42.805,6.029,13.3008,4.60072,2470.1,2022-4-21T09:53:07Z
2022-04-21T07:54:32Z,42.805,6.029,13.3006,4.60050,2470.063,2022-4-21T09:56:11Z
2022-04-21T07:57:35Z,42.805,6.029,13.3006,4.60052,2470.147,2022-4-21T09:59:14Z
2022-04-21T08:00:38Z,42.805,6.029,13.3007,4.60058,2470.11,2022-4-21T10:02:17Z
2022-04-21T08:03:41Z,42.805,6.029,13.3009,4.60062,2470.147,2022-4-21T10:05:20Z
2022-04-21T08:06:44Z,42.805,6.029,13.3002,4.60060,2470.171,2022-4-21T10:08:23Z
2022-04-21T08:09:47Z,42.805,6.029,13.3006,4.60059,2470.087,2022-4-21T10:11:26Z
2022-04-21T08:12:50Z,42.805,6.029,13.3008,4.60059,2470.1,2022-4-21T10:14:29Z
2022-04-21T08:15:54Z,42.805,6.029,13.3009,4.60057,2470.11,2022-4-21T10:17:32Z
2022-04-21T08:18:57Z,42.805,6.029,13.3011,4.60062,2470.087,2022-4-21T10:20:36Z
2022-04-21T08:22:00Z,42.805,6.029,13.3003,4.60052,2470.124,2022-4-21T10:23:39Z
2022-04-21T08:25:03Z,42.805,6.029,13.3001,4.60041,2470.133,2022-4-21T10:26:42Z
2022-04-21T08:28:06Z,42.805,6.029,13.3009,4.60055,2470.119,2022-4-21T10:29:45Z
2022-04-21T08:31:09Z,42.805,6.029,13.3014,4.60056,2470.124,2022-4-21T10:32:48Z
2022-04-21T08:34:12Z,42.805,6.029,13.2997,4.60045,2470.11,2022-4-21T10:35:51Z
2022-04-21T08:37:15Z,42.805,6.029,13.3017,4.60061,2470.11,2022-4-21T10:38:54Z
2022-04-21T08:40:19Z,42.805,6.029,13.3005,4.60047,2470.133,2022-4-21T10:41:57Z
2022-04-21T08:43:22Z,42.805,6.029,13.3006,4.60055,2470.133,2022-4-21T10:45:01Z
2022-04-21T08:46:25Z,42.805,6.029,13.3006,4.60060,2470.147,2022-4-21T10:48:04Z
2022-04-21T08:49:28Z,42.805,6.029,13.3008,4.60052,2470.11,2022-4-21T10:51:07Z
2022-04-21T08:52:31Z,42.805,6.029,13.3004,4.60056,2470.147,2022-4-21T10:54:10Z
2022-04-21T08:55:34Z,42.805,6.029,13.3005,4.60047,2470.133,2022-4-21T10:57:13Z
2022-04-21T08:58:37Z,42.805,6.029,13.3003,4.60051,2470.147,2022-4-21T11:00:16Z
2022-04-21T09:01:40Z,42.805,6.029,13.3000,4.60052,2470.171,2022-4-21T11:03:19Z
2022-04-21T09:04:44Z,42.805,6.029,13.2999,4.60052,2470.156,2022-4-21T11:06:22Z
2022-04-21T09:07:47Z,42.805,6.029,13.3008,4.60058,2470.156,2022-4-21T11:09:26Z
2022-04-21T09:10:50Z,42.805,6.029,13.3004,4.60049,2470.133,2022-4-21T11:12:29Z
2022-04-21T09:13:53Z,42.805,6.029,13.3008,4.60071,2470.087,2022-4-21T11:15:32Z
2022-04-21T09:16:56Z,42.805,6.029,13.3009,4.60059,2470.133,2022-4-21T11:18:35Z
2022-04-21T09:19:59Z,42.805,6.029,13.3006,4.60056,2470.171,2022-4-21T11:21:38Z
2022-04-21T09:23:02Z,42.805,6.029,13.3004,4.60054,2470.11,2022-4-21T11:24:41Z
2022-04-21T09:26:05Z,42.805,6.029,13.3010,4.60059,2470.156,2022-4-21T11:27:44Z
2022-04-21T09:29:09Z,42.805,6.029,13.3005,4.60056,2470.156,2022-4-21T11:30:47Z
2022-04-21T09:32:12Z,42.805,6.029,13.3011,4.60054,2470.18,2022-4-21T11:33:51Z
2022-04-21T09:35:15Z,42.805,6.029,13.3006,4.60066,2470.147,2022-4-21T11:36:54Z
2022-04-21T09:38:18Z,42.805,6.029,13.3005,4.60045,2470.147,2022-4-21T11:39:57Z
2022-04-21T09:41:21Z,42.805,6.029,13.3009,4.60056,2470.133,2022-4-21T11:43:00Z
2022-04-21T09:44:24Z,42.805,6.029,13.3006,4.60057,2470.133,2022-4-21T11:46:03Z
2022-04-21T09:47:27Z,42.805,6.029,13.3005,4.60052,2470.171,2022-4-21T11:49:06Z
2022-04-21T09:50:30Z,42.805,6.029,13.3009,4.60057,2470.11,2022-4-21T11:52:09Z
2022-04-21T09:53:34Z,42.805,6.029,13.3008,4.60062,2470.133,2022-4-21T11:55:12Z
2022-04-21T09:56:37Z,42.805,6.029,13.3004,4.60061,2470.133,2022-4-21T11:58:16Z
2022-04-21T09:59:40Z,42.805,6.029,13.3008,4.60069,2470.133,2022-4-21T12:01:19Z
2022-04-21T10:02:43Z,42.805,6.029,13.3006,4.60057,2470.156,2022-4-21T12:04:22Z
2022-04-21T10:05:46Z,42.805,6.029,13.3006,4.60064,2470.156,2022-4-21T12:07:25Z
2022-04-21T10:08:49Z,42.805,6.029,13.3001,4.60057,2470.11,2022-4-21T12:10:28Z
2022-04-21T10:11:52Z,42.805,6.029,13.3006,4.60057,2470.11,2022-4-21T12:13:31Z
2022-04-21T10:14:55Z,42.805,6.029,13.3003,4.60064,2470.133,2022-4-21T12:16:34Z
2022-04-21T10:17:59Z,42.805,6.029,13.3009,4.60061,2470.171,2022-4-21T12:19:38Z
2022-04-21T10:21:02Z,42.805,6.029,13.3001,4.60052,2470.133,2022-4-21T12:22:41Z
2022-04-21T10:24:05Z,42.805,6.029,13.3005,4.60052,2470.124,2022-4-21T12:25:44Z
2022-04-21T10:27:08Z,42.805,6.029,13.3008,4.60062,2470.147,2022-4-21T12:28:47Z
2022-04-21T10:30:11Z,42.805,6.029,13.3005,4.60058,2470.133,2022-4-21T12:31:50Z
2022-04-21T10:33:14Z,42.805,6.029,13.3009,4.60064,2470.133,2022-4-21T12:34:53Z
2022-04-21T10:36:17Z,42.805,6.029,13.3011,4.60060,2470.1,2022-4-21T12:37:56Z
2022-04-21T10:39:20Z,42.805,6.029,13.3009,4.60051,2470.133,2022-4-21T12:40:59Z
2022-04-21T10:42:24Z,42.805,6.029,13.3006,4.60063,2470.11,2022-4-21T12:44:03Z
2022-04-21T10:45:27Z,42.805,6.029,13.3006,4.60052,2470.171,2022-4-21T12:47:06Z
2022-04-21T10:48:30Z,42.805,6.029,13.3011,4.60057,2470.124,2022-4-21T12:50:09Z
2022-04-21T10:51:33Z,42.805,6.029,13.3006,4.60060,2470.11,2022-4-21T12:53:12Z
2022-04-21T10:54:36Z,42.805,6.029,13.3009,4.60052,2470.133,2022-4-21T12:56:15Z
2022-04-21T10:57:39Z,42.805,6.029,13.3005,4.60047,2470.11,2022-4-21T12:59:18Z
2022-04-21T11:00:42Z,42.805,6.029,13.3006,4.60057,2470.133,2022-4-21T13:02:21Z
2022-04-21T11:03:45Z,42.805,6.029,13.3004,4.60050,2470.11,2022-4-21T13:05:24Z
2022-04-21T11:06:49Z,42.805,6.029,13.3007,4.60062,2470.147,2022-4-21T13:08:28Z
2022-04-21T11:09:52Z,42.805,6.029,13.3005,4.60059,2470.133,2022-4-21T13:11:31Z
2022-04-21T11:12:55Z,42.805,6.029,13.3009,4.60066,2470.1,2022-4-21T13:14:34Z
2022-04-21T11:15:58Z,42.805,6.029,13.3007,4.60052,2470.11,2022-4-21T13:17:37Z
2022-04-21T11:19:01Z,42.805,6.029,13.3006,4.60053,2470.087,2022-4-21T13:20:40Z
2022-04-21T11:22:04Z,42.805,6.029,13.3006,4.60055,2470.087,2022-4-21T13:23:43Z
2022-04-21T11:25:07Z,42.805,6.029,13.3005,4.60053,2470.124,2022-4-21T13:26:46Z
2022-04-21T11:28:10Z,42.805,6.029,13.3004,4.60056,2470.1,2022-4-21T13:29:49Z
2022-04-21T11:31:14Z,42.805,6.029,13.3004,4.60063,2470.1,2022-4-21T13:32:53Z
2022-04-21T11:34:17Z,42.805,6.029,13.3002,4.60059,2470.124,2022-4-21T13:35:56Z
2022-04-21T11:37:20Z,42.805,6.029,13.3007,4.60062,2470.11,2022-4-21T13:38:59Z
2022-04-21T11:40:23Z,42.805,6.029,13.3008,4.60054,2470.063,2022-4-21T13:42:02Z
2022-04-21T11:43:26Z,42.805,6.029,13.3004,4.60057,2470.087,2022-4-21T13:45:05Z
2022-04-21T11:46:29Z,42.805,6.029,13.2999,4.60056,2470.087,2022-4-21T13:48:08Z
2022-04-21T11:49:32Z,42.805,6.029,13.3003,4.60052,2470.11,2022-4-21T13:51:11Z
2022-04-21T11:52:36Z,42.805,6.029,13.3005,4.60052,2470.1,2022-4-21T13:54:14Z
2022-04-21T11:55:39Z,42.805,6.029,13.3009,4.60062,2470.087,2022-4-21T13:57:18Z
2022-04-21T11:58:42Z,42.805,6.029,13.3008,4.60059,2470.1,2022-4-21T14:00:21Z
2022-04-21T12:01:45Z,42.805,6.029,13.3006,4.60049,2470.11,2022-4-21T14:03:24Z
2022-04-21T12:04:48Z,42.805,6.029,13.3007,4.60062,2470.087,2022-4-21T14:06:27Z
2022-04-21T12:07:51Z,42.805,6.029,13.3001,4.60054,2470.1,2022-4-21T14:09:30Z
2022-04-21T12:10:54Z,42.805,6.029,13.3004,4.60050,2470.04,2022-4-21T14:12:33Z
2022-04-21T12:13:57Z,42.805,6.029,13.3001,4.60052,2470.063,2022-4-21T14:15:36Z
2022-04-21T12:17:01Z,42.805,6.029,13.3003,4.60053,2470.063,2022-4-21T14:18:39Z
2022-04-21T12:20:04Z,42.805,6.029,13.3001,4.60049,2470.077,2022-4-21T14:21:43Z
2022-04-21T12:23:07Z,42.805,6.029,13.3007,4.60050,2470.04,2022-4-21T14:24:46Z
2022-04-21T12:26:10Z,42.805,6.029,13.3003,4.60047,2470.077,2022-4-21T14:27:49Z
2022-04-21T12:29:13Z,42.805,6.029,13.3004,4.60056,2470.077,2022-4-21T14:30:52Z
2022-04-21T12:32:16Z,42.805,6.029,13.3005,4.60057,2470.1,2022-4-21T14:33:55Z
2022-04-21T12:35:19Z,42.805,6.029,13.3013,4.60061,2470.087,2022-4-21T14:36:58Z
2022-04-21T12:38:22Z,42.805,6.029,13.3000,4.60060,2470.1,2022-4-21T14:40:01Z
2022-04-21T12:41:26Z,42.805,6.029,13.3005,4.60051,2470.063,2022-4-21T14:43:04Z
2022-04-21T12:44:29Z,42.805,6.029,13.3009,4.60052,2470.11,2022-4-21T14:46:08Z
2022-04-21T12:47:32Z,42.805,6.029,13.3004,4.60050,2470.087,2022-4-21T14:49:11Z
2022-04-21T12:50:35Z,42.805,6.029,13.3003,4.60052,2470.087,2022-4-21T14:52:14Z
2022-04-21T12:53:38Z,42.805,6.029,13.3000,4.60042,2470.063,2022-4-21T14:55:17Z
2022-04-21T12:56:41Z,42.805,6.029,13.2998,4.60045,2470.077,2022-4-21T14:58:20Z
2022-04-21T12:59:44Z,42.805,6.029,13.3007,4.60052,2470.087,2022-4-21T15:01:23Z
2022-04-21T13:02:47Z,42.805,6.029,13.3001,4.60054,2470.063,2022-4-21T15:04:26Z
2022-04-21T13:05:51Z,42.805,6.029,13.3005,4.60057,2470.077,2022-4-21T15:07:29Z
2022-04-21T13:08:54Z,42.805,6.029,13.3006,4.60052,2470.063,2022-4-21T15:10:33Z
2022-04-21T13:11:57Z,42.805,6.029,13.3003,4.60053,2470.063,2022-4-21T15:13:36Z
2022-04-21T13:15:00Z,42.805,6.029,13.3011,4.60057,2470.087,2022-4-21T15:16:39Z
2022-04-21T13:18:03Z,42.805,6.029,13.3005,4.60052,2470.077,2022-4-21T15:19:42Z
2022-04-21T13:21:06Z,42.805,6.029,13.3009,4.60049,2470.077,2022-4-21T15:22:45Z
2022-04-21T13:24:09Z,42.805,6.029,13.3011,4.60059,2470.087,2022-4-21T15:25:48Z
2022-04-21T13:27:12Z,42.805,6.029,13.3004,4.60060,2470.1,2022-4-21T15:28:51Z
2022-04-21T13:30:16Z,42.805,6.029,13.3007,4.60055,2470.04,2022-4-21T15:31:54Z
2022-04-21T13:33:19Z,42.805,6.029,13.3009,4.60059,2470.04,2022-4-21T15:34:58Z
2022-04-21T13:36:22Z,42.805,6.029,13.3007,4.60052,2470.04,2022-4-21T15:38:01Z
2022-04-21T13:39:25Z,42.805,6.029,13.3007,4.60056,2470.077,2022-4-21T15:41:04Z
2022-04-21T13:42:28Z,42.805,6.029,13.3002,4.60054,2470.04,2022-4-21T15:44:07Z
2022-04-21T13:45:31Z,42.805,6.029,13.3003,4.60052,2470.04,2022-4-21T15:47:10Z
2022-04-21T13:48:34Z,42.805,6.029,13.3006,4.60049,2470.053,2022-4-21T15:50:13Z
2022-04-21T13:51:37Z,42.805,6.029,13.3005,4.60054,2470.04,2022-4-21T15:53:16Z
2022-04-21T13:54:41Z,42.805,6.029,13.3004,4.60052,2470.063,2022-4-21T15:56:20Z
2022-04-21T13:57:44Z,42.805,6.029,13.3009,4.60055,2470.053,2022-4-21T15:59:23Z
2022-04-21T14:00:47Z,42.805,6.029,13.3008,4.60052,2470.063,2022-4-21T16:02:26Z
2022-04-21T14:03:50Z,42.805,6.029,13.3011,4.60060,2470.063,2022-4-21T16:05:29Z
2022-04-21T14:06:53Z,42.805,6.029,13.3006,4.60057,2470.063,2022-4-21T16:08:32Z
2022-04-21T14:09:56Z,42.805,6.029,13.3007,4.60053,2470.03,2022-4-21T16:11:35Z
2022-04-21T14:12:59Z,42.805,6.029,13.3013,4.60058,2470.04,2022-4-21T16:14:38Z
2022-04-21T14:16:02Z,42.805,6.029,13.3006,4.60057,2470.04,2022-4-21T16:17:41Z
2022-04-21T14:19:06Z,42.805,6.029,13.3004,4.60057,2470.017,2022-4-21T16:20:45Z
2022-04-21T14:22:09Z,42.805,6.029,13.3005,4.60055,2470.03,2022-4-21T16:23:48Z
2022-04-21T14:25:12Z,42.805,6.029,13.3007,4.60053,2470.007,2022-4-21T16:26:51Z
2022-04-21T14:28:15Z,42.805,6.029,13.3004,4.60057,2470.053,2022-4-21T16:29:54Z
2022-04-21T14:31:18Z,42.805,6.029,13.3006,4.60052,2470.03,2022-4-21T16:32:57Z
2022-04-21T14:34:21Z,42.805,6.029,13.3008,4.60051,2470.053,2022-4-21T16:36:00Z
2022-04-21T14:37:24Z,42.805,6.029,13.3000,4.60054,2470.053,2022-4-21T16:39:03Z
2022-04-21T14:40:28Z,42.805,6.029,13.3006,4.60057,2470.017,2022-4-21T16:42:06Z
2022-04-21T14:43:31Z,42.805,6.029,13.3008,4.60050,2470.053,2022-4-21T16:45:10Z
2022-04-21T14:46:34Z,42.805,6.029,13.3009,4.60058,2470.017,2022-4-21T16:48:13Z
2022-04-21T14:49:37Z,42.805,6.029,13.3009,4.60054,2470.04,2022-4-21T16:51:16Z
2022-04-21T14:52:40Z,42.805,6.029,13.3006,4.60057,2470.04,2022-4-21T16:54:19Z
2022-04-21T14:55:43Z,42.805,6.029,13.3005,4.60046,2470.04,2022-4-21T16:57:22Z
2022-04-21T14:58:46Z,42.805,6.029,13.3004,4.60064,2470.04,2022-4-21T17:00:25Z
2022-04-21T15:01:49Z,42.805,6.029,13.3000,4.60054,2470.04,2022-4-21T17:03:28Z
2022-04-21T15:04:52Z,42.805,6.029,13.3004,4.60049,2470.04,2022-4-21T17:06:31Z
2022-04-21T15:07:56Z,42.805,6.029,13.3006,4.60053,2470.007,2022-4-21T17:09:35Z
2022-04-21T15:10:59Z,42.805,6.029,13.3005,4.60050,2470.04,2022-4-21T17:12:38Z
2022-04-21T15:14:02Z,42.805,6.029,13.2999,4.60046,2470.017,2022-4-21T17:15:41Z